Weather History for Exeter, United Kingdom

Change the Weather History Date:

Friday, February 1, 2013

  Actual Average Record
Temperature  
Mean Temperature 44 °F -  
Max Temperature 46 °F 47 °F 55 °F (2002)
Min Temperature 41 °F 36 °F 28 °F (2009)
Degree Days  
Heating Degree Days 22    
Moisture  
Dew Point 40 °F    
Average Humidity 85    
Maximum Humidity 100    
Minimum Humidity 66    
Precipitation  
Precipitation 0.04 in - - ()
Sea Level Pressure  
Sea Level Pressure 29.61 in    
Wind  
Wind Speed 8 mph ()    
Max Wind Speed 18 mph    
Max Gust Speed 30 mph    
Visibility 5.9 miles    
Events Rain    
Averages and records for this station are not official NWS values.
T = Trace of Precipitation, MM = Missing Value Source: Averaged Metar Reports

Daily Weather History Graph

Daily Weather History Graph

Search for Another Location

Airport:

Trip Planner

Search our weather history database for the weather conditions in past years. The results will help you decide how hot, cold, wet, or windy it might be!

Date:

Astronomy

Feb. 01, 2013 Rise Set
Actual Time 7:49 AM GMT 5:05 PM GMT
Civil Twilight 7:13 AM GMT 5:41 PM GMT
Nautical Twilight 6:34 AM GMT 6:20 PM GMT
Astronomical Twilight 5:56 AM GMT 6:59 PM GMT
Moon 11:43 PM GMT (2/1) 9:32 AM GMT (2/1)
Length of Visible Light 10h 27m
Length of Day
9h 16m
Waning Gibbous, 72% of the Moon is Illuminated
Feb 1
Waning Gibbous
Feb 3
Last Quarter
Feb 10
New
Feb 17
First Quarter
Feb 25
Full

Hourly Weather History & Observations

Time (GMT) Temp. Windchill Dew Point Humidity Pressure Visibility Wind Dir Wind Speed Gust Speed Precip Events Conditions
12:20 AM 44.6 °F 41.4 °F 41.0 °F 87% 29.89 in 6.2 mi WSW 5.8 mph - N/A Rain Light Rain
12:50 AM 44.6 °F 41.4 °F 41.0 °F 87% 29.86 in 6.2 mi SSW 5.8 mph - N/A Rain Light Rain
1:20 AM 44.6 °F 43.1 °F 41.0 °F 87% 29.86 in 6.2 mi South 3.5 mph - N/A Rain Light Rain
1:50 AM 44.6 °F 42.2 °F 41.0 °F 87% 29.83 in 6.2 mi South 4.6 mph - N/A Rain Rain
2:50 AM 43 °F - 42 °F 96%  in - South 1.2 mph - -  
5:50 AM 42 °F - 42 °F 99%  in - ENE 2.3 mph - -  
6:20 AM 42.8 °F - 41.0 °F 93% 29.62 in 4.3 mi NNW 2.3 mph - N/A Rain Light Rain
6:50 AM 41.0 °F 38.0 °F 41.0 °F 100% 29.62 in 3.1 mi NNW 4.6 mph - N/A   Light Drizzle
7:20 AM 41.0 °F 38.0 °F 41.0 °F 100% 29.59 in 4.3 mi NNW 4.6 mph - N/A   Light Drizzle
7:50 AM 41.0 °F 39.0 °F 41.0 °F 100% 29.59 in 2.5 mi North 3.5 mph - N/A Rain Light Rain
8:20 AM 41.0 °F - 41.0 °F 100% 29.59 in 4.3 mi North 2.3 mph - N/A Rain Light Rain
8:50 AM 41 °F - 41 °F 99%  in - NNE 2.3 mph - -  
8:50 AM 41.0 °F 39.0 °F 41.0 °F 100% 29.59 in 6.2 mi North 3.5 mph - N/A Rain Light Rain
9:20 AM 41.0 °F 39.0 °F 41.0 °F 100% 29.59 in 6.2 mi NW 3.5 mph - N/A   Scattered Clouds
9:50 AM 41.0 °F 36.4 °F 41.0 °F 100% 29.59 in 6.2 mi WNW 6.9 mph - N/A   Mostly Cloudy
10:20 AM 41.0 °F 34.7 °F 41.0 °F 100% 29.59 in 6.2 mi NW 10.4 mph - N/A   Scattered Clouds
10:50 AM 42.8 °F 36.2 °F 42.8 °F 100% 29.59 in 6.2 mi NW 12.7 mph - N/A   Scattered Clouds
11:20 AM 44.6 °F 37.4 °F 41.0 °F 87% 29.59 in 6.2 mi NW 16.1 mph - N/A   Scattered Clouds
11:50 AM 46 °F - 41 °F 77%  in - NW 12.7 mph - -  
11:50 AM 44.6 °F 38.1 °F 41.0 °F 87% 29.59 in 6.2 mi WNW 13.8 mph - N/A   Scattered Clouds
12:20 PM 46.4 °F 39.2 °F 41.0 °F 81% 29.59 in 6.2 mi NW 18.4 mph - N/A   Partly Cloudy
12:50 PM 46.4 °F 39.8 °F 41.0 °F 81% 29.56 in 6.2 mi WNW 16.1 mph - N/A   Partly Cloudy
1:20 PM 46.4 °F 40.4 °F 41.0 °F 81% 29.56 in 6.2 mi WNW 13.8 mph - N/A   Partly Cloudy
1:50 PM 46.4 °F 40.1 °F 39.2 °F 76% 29.56 in 6.2 mi WNW 15.0 mph - N/A   Partly Cloudy
2:20 PM 46.4 °F 40.4 °F 37.4 °F 71% 29.56 in 6.2 mi WNW 13.8 mph - N/A   Partly Cloudy
2:50 PM 46 °F - 38 °F 66%  in - WNW 9.2 mph - -  
2:50 PM 46.4 °F 40.4 °F 39.2 °F 76% 29.53 in 6.2 mi WNW 13.8 mph - N/A   Partly Cloudy
3:20 PM 46.4 °F 40.7 °F 39.2 °F 76% 29.53 in 6.2 mi WNW 12.7 mph - N/A   Partly Cloudy
3:50 PM 44.6 °F 38.1 °F 39.2 °F 81% 29.53 in 6.2 mi West 13.8 mph - N/A   Partly Cloudy
4:20 PM 44.6 °F 39.2 °F 39.2 °F 81% 29.53 in 6.2 mi WNW 10.4 mph - N/A   Partly Cloudy
4:50 PM 44.6 °F 39.2 °F 39.2 °F 81% 29.53 in 6.2 mi West 10.4 mph - N/A   Scattered Clouds
5:20 PM - - - N/A% 29.53 in 6.2 mi WNW 10.4 mph - N/A   Scattered Clouds
5:50 PM 45 °F - 40 °F 75%  in - NW 10.4 mph - -  
5:50 PM 44.6 °F 38.8 °F 39.2 °F 81% 29.53 in 6.2 mi WNW 11.5 mph - N/A   Scattered Clouds
6:20 PM 44.6 °F 39.2 °F 39.2 °F 81% 29.53 in 6.2 mi West 10.4 mph - N/A   Scattered Clouds
6:50 PM 44.6 °F 38.1 °F 41.0 °F 87% 29.53 in 6.2 mi WNW 13.8 mph 25.3 mph N/A   Scattered Clouds
7:50 PM 44.6 °F 36.9 °F 37.4 °F 76% 29.53 in 6.2 mi NW 18.4 mph 29.9 mph N/A   Scattered Clouds
8:20 PM 44.6 °F 37.4 °F 39.2 °F 81% 29.56 in 6.2 mi NW 16.1 mph - N/A   Scattered Clouds
8:50 PM 43 °F - 38 °F 74%  in - NNW 11.5 mph - -  
8:50 PM 42.8 °F 34.8 °F 37.4 °F 81% 29.56 in 6.2 mi NW 17.3 mph - N/A   Scattered Clouds
9:20 PM 42.8 °F 34.5 °F 37.4 °F 81% 29.59 in 6.2 mi NW 18.4 mph - N/A   Partly Cloudy
9:50 PM 42.8 °F 35.1 °F 37.4 °F 81% 29.59 in 6.2 mi NW 16.1 mph 27.6 mph N/A   Scattered Clouds
10:20 PM 42.8 °F 35.1 °F 37.4 °F 81% 29.62 in 6.2 mi NNW 16.1 mph - N/A   Scattered Clouds
10:50 PM 44.6 °F 37.2 °F 37.4 °F 76% 29.65 in 6.2 mi NNW 17.3 mph - N/A   Scattered Clouds
11:20 PM 42.8 °F 34.5 °F 35.6 °F 76% 29.65 in 6.2 mi NNW 18.4 mph - N/A   Scattered Clouds
11:50 PM 42 °F - 35 °F 68%  in - NNW 9.2 mph - -  
11:50 PM 42.8 °F 35.1 °F 35.6 °F 76% 29.68 in 6.2 mi NW 16.1 mph - N/A   Partly Cloudy